Location: Moonridge Observatory
(39.2268°N, 77.7914°W)
Time: 03:30:51
(UTC-04:00)

Amateur Radio Satellites - All Passes

Search period start: 01 September 2014 03:00
Search period end: 02 September 2014 03:00
Location: Moonridge Observatory, 39.2268°N, 77.7914°W

Satellite Date Start Highest point End Downlink Frequencies (MHz)
Time Altitude Azimuth
PCSat 01 Sep 03:07:51 03:13:00 45° 248° (WSW) 03:18:07 145.825 MHz
KITSAT 1 01 Sep 03:08:12 03:11:23 13° 336° (NNW) 03:14:34 435.175 FM
Oscar 19 01 Sep 03:10:54 03:16:03 64° 287° (WNW) 03:21:10 437.125 CW, 437.150 USB
Gurwin Techsat 1B 01 Sep 03:11:57 03:16:19 25° 95° (E) 03:20:39 435.225 FM
JAS-1B 01 Sep 03:13:23 03:19:47 50° 98° (E) 03:25:24 435.800 - 435.900 CW/SSB
OPAL 01 Sep 03:15:35 03:17:30 12° 57° (ENE) 03:19:25 ?
AO-Echo 01 Sep 03:28:11 03:32:54 87° 284° (WNW) 03:37:38 ?
ITAMSAT 1 01 Sep 03:46:09 03:51:19 69° 286° (WNW) 03:56:28 435.822 SSB
Oscar 16 01 Sep 03:46:34 03:51:01 29° 293° (WNW) 03:55:26 437.025 USB, Beacon 2401.1428
Uribyol 2 01 Sep 03:55:52 04:00:55 53° 288° (WNW) 04:05:57 436.500 FM
TMSAT-1 01 Sep 04:02:01 04:07:14 56° 100° (E) 04:12:25 436.925 FM
Oscar 10/S400 01 Sep 04:10:16 05:24:19 32° 242° (WSW) 09:11:25 145.825 - 145.975 CW/USB, Beacon 145.810 USB
AO-27 01 Sep 04:15:55 04:20:37 36° 291° (WNW) 04:25:19 436.795 MHz FM
Uosat F 01 Sep 04:21:30 04:24:09 14° 92° (E) 04:26:48 435.120 FM
Sapphire 01 Sep 04:25:42 04:26:17 10° 259° (W) 04:26:51 437.095 MHz 1200 baud AX-25 AFSK
SO-50 01 Sep 04:36:45 04:40:55 38° 308° (NW) 04:45:12 436.795 FM
AO-7 01 Sep 04:40:54 04:48:07 32° 97° (E) 04:55:15 29.400 - 29.500 MHz
UOSAT-12 01 Sep 04:49:06 04:52:48 24° 111° (ESE) 04:56:33 437.025 FM, 437.400 FM
OPAL 01 Sep 04:50:32 04:55:36 86° 255° (WSW) 05:00:46 ?
Gurwin Techsat 1B 01 Sep 04:51:28 04:56:20 38° 291° (WNW) 05:01:12 435.225 FM
JAS-1B 01 Sep 05:04:50 05:09:54 24° 301° (WNW) 05:14:30 435.800 - 435.900 CW/SSB
TMSAT-1 01 Sep 05:43:08 05:46:41 19° 297° (WNW) 05:50:15 436.925 FM
RS-15 01 Sep 05:54:42 05:59:53 15° 97° (E) 06:05:00 29.354 - 29.394 USB, Beacon 29.352 USB
Uosat F 01 Sep 05:58:23 06:03:19 60° 287° (WNW) 06:08:14 435.120 FM
Hamsat 01 Sep 06:09:47 06:12:41 17° 92° (E) 06:15:32 145.90 MHz
UOSAT-12 01 Sep 06:28:27 06:32:44 37° 309° (NW) 06:37:07 437.025 FM, 437.400 FM
AO-7 01 Sep 06:33:10 06:41:09 55° 294° (WNW) 06:49:07 29.400 - 29.500 MHz
STRAND 1 01 Sep 06:37:04 06:41:49 41° 70° (ENE) 06:46:35 ?
Saudisat 1A 01 Sep 06:59:20 07:03:19 32° 51° (NE) 07:07:15 436.775 MHz
KITSAT 1 01 Sep 07:04:48 07:10:51 22° 38° (NE) 07:16:52 435.175 FM
JAS-2 01 Sep 07:23:38 07:28:56 89° 284° (WNW) 07:34:43 435.800 - 435.900 CW/SSB, 435.910 FM
SO-67 01 Sep 07:36:39 07:39:15 20° 95° (E) 07:41:50 435.3500 MHz FM
Hamsat 01 Sep 07:44:45 07:48:47 38° 288° (WNW) 07:52:45 145.90 MHz
RS-15 01 Sep 07:59:11 08:10:14 75° 116° (ESE) 08:21:05 29.354 - 29.394 USB, Beacon 29.352 USB
STRAND 1 01 Sep 08:17:16 08:21:09 22° 266° (W) 08:25:03 ?
AO-7 01 Sep 08:29:42 08:32:05 12° 315° (NW) 08:34:28 29.400 - 29.500 MHz
HO-68 01 Sep 08:36:24 08:38:19 11° 88° (E) 08:40:14 435.675 MHz FM
Saudisat 1A 01 Sep 08:39:06 08:42:46 26° 247° (WSW) 08:46:25 436.775 MHz
KITSAT 1 01 Sep 08:59:21 09:07:29 84° 61° (ENE) 09:15:33 435.175 FM
ISS 01 Sep 09:02:03 09:02:47 11° 128° (SE) 09:03:31 145.800 FM
SO-67 01 Sep 09:09:35 09:12:12 20° 290° (WNW) 09:14:49 435.3500 MHz FM
JAS-2 01 Sep 09:12:14 09:13:23 11° 300° (WNW) 09:14:33 435.800 - 435.900 CW/SSB, 435.910 FM
UKube-1 01 Sep 09:39:23 09:41:56 15° 93° (E) 09:44:29 145.840 MHz, 145.915 MHz
Oscar 11 01 Sep 09:44:52 09:46:12 11° 90° (E) 09:47:32 145.825 FM, Beacon 2401.500 USB
RS-15 01 Sep 10:13:49 10:23:33 35° 321° (NW) 10:33:19 29.354 - 29.394 USB, Beacon 29.352 USB
HO-68 01 Sep 10:19:52 10:27:04 76° 105° (ESE) 10:34:13 435.675 MHz FM
ISS 01 Sep 10:35:44 10:39:03 76° 323° (NW) 10:42:23 145.800 FM
KITSAT 1 01 Sep 10:56:40 11:01:51 19° 258° (WSW) 11:07:02 435.175 FM
UKube-1 01 Sep 11:14:13 11:18:20 44° 288° (WNW) 11:22:27 145.840 MHz, 145.915 MHz
Oscar 11 01 Sep 11:18:26 11:22:45 60° 286° (WNW) 11:27:02 145.825 FM, Beacon 2401.500 USB
SO-50 01 Sep 11:29:12 11:32:41 20° 45° (NE) 11:36:13 436.795 FM
AO-40 01 Sep 11:35:07 03:00:21 42° 187° (S) 11:55:26 Beacon 2401.320
FUNcube-1 01 Sep 11:48:30 11:53:03 73° 284° (WNW) 11:57:39 145.950 - 145.970 MHz USB
PANSAT 01 Sep 11:56:30 11:58:32 14° 170° (S) 12:00:34 not established
HO-68 01 Sep 12:08:59 12:14:00 21° 302° (WNW) 12:19:01 435.675 MHz FM
JAS-1B 01 Sep 12:12:31 12:13:56 10° 50° (NE) 12:15:19 435.800 - 435.900 CW/SSB
ISS 01 Sep 12:14:06 12:16:15 16° 341° (NNW) 12:18:23 145.800 FM
RS-15 01 Sep 12:34:03 12:40:41 17° 355° (N) 12:47:21 29.354 - 29.394 USB, Beacon 29.352 USB
Oscar 19 01 Sep 12:49:13 12:52:53 20° 64° (ENE) 12:56:35 437.125 CW, 437.150 USB
AO-Echo 01 Sep 13:04:47 13:06:45 12° 62° (ENE) 13:08:42 ?
SO-50 01 Sep 13:08:53 13:13:37 59° 242° (WSW) 13:18:22 436.795 FM
MaSat-1 01 Sep 13:13:23 13:18:13 73° 112° (ESE) 13:23:23 437.345 MHz
UOSAT-12 01 Sep 13:19:27 13:22:53 19° 44° (NE) 13:26:17 437.025 FM, 437.400 FM
Oscar 16 01 Sep 13:23:00 13:27:49 42° 70° (ENE) 13:32:42 437.025 USB, Beacon 2401.1428
ITAMSAT 1 01 Sep 13:25:39 13:29:15 20° 64° (ENE) 13:32:52 435.822 SSB
Uribyol 2 01 Sep 13:34:32 13:38:39 25° 66° (ENE) 13:42:47 436.500 FM
PANSAT 01 Sep 13:35:34 13:38:03 16° 183° (S) 13:40:31 not established
JAS-1B 01 Sep 13:53:28 14:02:40 50° 68° (ENE) 14:10:55 435.800 - 435.900 CW/SSB
AO-27 01 Sep 13:53:52 13:58:33 36° 69° (ENE) 14:03:14 436.795 MHz FM
Oscar 19 01 Sep 14:26:51 14:31:50 49° 260° (W) 14:36:52 437.125 CW, 437.150 USB
Gurwin Techsat 1B 01 Sep 14:31:55 14:36:44 36° 69° (ENE) 14:41:33 435.225 FM
AO-Echo 01 Sep 14:39:53 14:44:55 76° 257° (WSW) 14:49:49 ?
Oscar 10/S400 01 Sep 14:43:34 14:53:15 13° 151° (SSE) 15:01:11 145.825 - 145.975 CW/USB, Beacon 145.810 USB
RS-15 01 Sep 14:49:36 14:58:33 27° 31° (NNE) 15:07:40 29.354 - 29.394 USB, Beacon 29.352 USB
MaSat-1 01 Sep 14:52:38 14:55:50 17° 311° (NW) 14:59:05 437.345 MHz
UOSAT-12 01 Sep 14:58:46 15:03:24 57° 243° (WSW) 15:07:56 437.025 FM, 437.400 FM
ITAMSAT 1 01 Sep 15:03:20 15:08:21 50° 260° (W) 15:13:23 435.822 SSB
Oscar 16 01 Sep 15:03:24 15:07:19 22° 266° (W) 15:11:17 437.025 USB, Beacon 2401.1428
Uribyol 2 01 Sep 15:13:08 15:17:54 38° 262° (W) 15:22:42 436.500 FM
PANSAT 01 Sep 15:16:54 15:17:31 10° 196° (SSW) 15:18:08 not established
TMSAT-1 01 Sep 15:21:42 15:26:59 78° 75° (ENE) 15:32:17 436.925 FM
ISS 01 Sep 15:29:34 15:31:56 18° 22° (NNE) 15:34:18 145.800 FM
Uosat F 01 Sep 15:33:40 15:37:09 19° 64° (ENE) 15:40:38 435.120 FM
AO-27 01 Sep 15:33:49 15:38:06 26° 265° (W) 15:42:23 436.795 MHz FM
AO-7 01 Sep 15:38:39 15:46:15 41° 62° (ENE) 15:53:51 29.400 - 29.500 MHz
Sapphire 01 Sep 15:38:59 15:41:29 13° 103° (ESE) 15:43:59 437.095 MHz 1200 baud AX-25 AFSK
JAS-1B 01 Sep 15:44:00 15:53:05 42° 263° (W) 16:01:25 435.800 - 435.900 CW/SSB
PCSat 01 Sep 16:05:57 16:10:25 27° 108° (ESE) 16:14:54 145.825 MHz
Gurwin Techsat 1B 01 Sep 16:12:19 16:16:44 27° 265° (W) 16:21:10 435.225 FM
RS-15 01 Sep 17:01:46 17:12:56 80° 58° (ENE) 17:24:31 29.354 - 29.394 USB, Beacon 29.352 USB
OPAL 01 Sep 17:02:02 17:06:27 27° 98° (E) 17:10:50 ?
Hamsat 01 Sep 17:03:40 17:05:17 12° 64° (ENE) 17:06:54 145.90 MHz
TMSAT-1 01 Sep 17:05:36 17:07:27 12° 271° (W) 17:09:19 436.925 FM
ISS 01 Sep 17:05:41 17:09:01 83° 220° (SW) 17:12:21 145.800 FM
Uosat F 01 Sep 17:10:43 17:15:33 48° 260° (W) 17:20:24 435.120 FM
Sapphire 01 Sep 17:18:47 17:24:11 76° 299° (WNW) 17:29:37 437.095 MHz 1200 baud AX-25 AFSK
AO-7 01 Sep 17:31:05 17:38:55 44° 260° (W) 17:46:47 29.400 - 29.500 MHz
JAS-2 01 Sep 17:35:19 17:40:39 34° 69° (ENE) 17:45:32 435.800 - 435.900 CW/SSB, 435.910 FM
PCSat 01 Sep 17:48:32 17:53:36 40° 305° (NW) 17:58:43 145.825 MHz
Hamsat 01 Sep 18:36:25 18:40:41 62° 260° (W) 18:45:01 145.90 MHz
OPAL 01 Sep 18:40:37 18:45:20 36° 293° (WNW) 18:50:01 ?
STRAND 1 01 Sep 18:50:05 18:52:56 15° 92° (E) 18:55:47 ?
Sapphire 01 Sep 19:06:05 19:08:33 13° 319° (NW) 19:11:01 437.095 MHz 1200 baud AX-25 AFSK
RS-15 01 Sep 19:15:34 19:24:07 26° 257° (WSW) 19:32:58 29.354 - 29.394 USB, Beacon 29.352 USB
JAS-2 01 Sep 19:20:20 19:25:43 32° 262° (W) 19:30:40 435.800 - 435.900 CW/SSB, 435.910 FM
SO-67 01 Sep 19:40:32 19:43:59 76° 259° (WSW) 19:47:28 435.3500 MHz FM
STRAND 1 01 Sep 20:27:29 20:32:30 60° 287° (WNW) 20:37:31 ?
UKube-1 01 Sep 20:35:00 20:36:56 13° 63° (ENE) 20:38:51 145.840 MHz, 145.915 MHz
HO-68 01 Sep 20:47:03 20:53:53 51° 68° (ENE) 21:00:44 435.675 MHz FM
MaSat-1 01 Sep 21:33:46 21:36:05 14° 47° (NE) 21:38:17 437.345 MHz
KITSAT 1 01 Sep 21:37:49 21:39:53 11° 98° (E) 21:41:57 435.175 FM
UKube-1 01 Sep 22:08:21 22:12:37 58° 259° (W) 22:16:55 145.840 MHz, 145.915 MHz
Oscar 11 01 Sep 22:12:03 22:16:24 88° 256° (WSW) 22:20:47 145.825 FM, Beacon 2401.500 USB
HO-68 01 Sep 22:35:47 22:41:48 29° 264° (W) 22:47:51 435.675 MHz FM
Saudisat 1A 01 Sep 22:43:39 22:48:03 80° 302° (WNW) 22:52:29 436.775 MHz
FUNcube-1 01 Sep 22:43:55 22:48:05 78° 76° (ENE) 22:52:22 145.950 - 145.970 MHz USB
MaSat-1 01 Sep 23:09:18 23:13:42 63° 249° (WSW) 23:17:28 437.345 MHz
KITSAT 1 01 Sep 23:25:48 23:33:48 70° 115° (ESE) 23:41:50 435.175 FM
Sapphire 02 Sep 00:26:47 00:28:50 12° 40° (NE) 00:30:52 437.095 MHz 1200 baud AX-25 AFSK
Saudisat 1A 02 Sep 00:26:54 00:28:21 11° 321° (NW) 00:29:49 436.775 MHz
PCSat 02 Sep 00:54:40 00:58:39 20° 47° (NE) 01:02:37 145.825 MHz
KITSAT 1 02 Sep 01:22:58 01:29:51 30° 316° (NW) 01:36:46 435.175 FM
Oscar 16 02 Sep 01:36:58 01:40:09 16° 92° (E) 01:43:20 437.025 USB, Beacon 2401.1428
Sapphire 02 Sep 02:07:51 02:13:17 68° 60° (ENE) 02:18:40 437.095 MHz 1200 baud AX-25 AFSK
AO-27 02 Sep 02:09:29 02:12:01 14° 91° (E) 02:14:31 436.795 MHz FM
PCSat 02 Sep 02:37:09 02:42:31 63° 246° (WSW) 02:47:51 145.825 MHz
Oscar 19 02 Sep 02:39:21 02:44:32 65° 102° (ESE) 02:49:39 437.125 CW, 437.150 USB
AO-Echo 02 Sep 02:48:25 02:52:44 35° 98° (E) 02:57:03 ?
Gurwin Techsat 1B 02 Sep 02:50:21 02:53:27 16° 91° (E) 02:56:32 435.225 FM
